| time (UTC) | temp F | wind direction | speed MPH | gust MPH | rain 1hr in | rain 24hr in | rain mn in | humidity % | barometer mb |
| 20260906001234 | 56 | 337 | 3.0 | 3.0 | 0.00 | 0.10 | 0.00 | 83 | 1028.5 |
| 20260905235734 | 56 | 337 | 1.0 | 2.0 | 0.00 | 0.10 | 0.00 | 83 | 1028.2 |
| 20260905234234 | 55 | 337 | 2.0 | 2.0 | 0.00 | 0.10 | 0.00 | 83 | 1028.2 |
| 20260905232734 | 57 | 337 | 0.0 | 0.0 | 0.00 | 0.10 | 0.00 | 83 | 1028.0 |
| 20260905231234 | 57 | 292 | 2.0 | 4.0 | 0.00 | 0.10 | 0.00 | 83 | 1028.2 |
| 20260905225734 | 57 | 337 | 0.0 | 0.0 | 0.00 | 0.10 | 0.00 | 83 | 1028.1 |
| 20260905224234 | 57 | 315 | 2.0 | 2.0 | 0.00 | 0.10 | 0.00 | 83 | 1027.9 |
| 20260905222734 | 57 | 315 | 0.0 | 0.0 | 0.00 | 0.10 | 0.00 | 83 | 1027.9 |
| 20260905221234 | 57 | 292 | 0.0 | 0.0 | 0.00 | 0.10 | 0.00 | 82 | 1027.6 |
| 20260905215734 | 58 | 292 | 0.0 | 2.0 | 0.00 | 0.10 | 0.00 | 82 | 1027.6 |
| 20260905214234 | 58 | 337 | 2.0 | 2.0 | 0.00 | 0.10 | 0.00 | 81 | 1027.2 |
| 20260905212734 | 59 | 292 | 0.0 | 0.0 | 0.00 | 0.10 | 0.00 | 80 | 1027.0 |
| 20260905211234 | 60 | 337 | 2.0 | 2.0 | 0.00 | 0.10 | 0.00 | 80 | 1027.0 |
| 20260905205734 | 60 | 315 | 0.0 | 3.0 | 0.00 | 0.10 | 0.00 | 80 | 1027.0 |
| 20260905204234 | 60 | 337 | 0.0 | 0.0 | 0.00 | 0.10 | 0.00 | 79 | 1027.0 |
| 20260905202734 | 60 | 337 | 0.0 | 0.0 | 0.00 | 0.10 | 0.00 | 78 | 1026.8 |
| 20260905201235 | 61 | 337 | 0.0 | 0.0 | 0.00 | 0.10 | 0.00 | 77 | 1026.8 |
| 20260905195735 | 62 | 337 | 2.0 | 2.0 | 0.00 | 0.10 | 0.00 | 75 | 1026.5 |
| 20260905194235 | 63 | 337 | 2.0 | 2.0 | 0.00 | 0.10 | 0.00 | 73 | 1026.5 |
| 20260905192735 | 63 | 315 | 1.0 | 2.0 | 0.00 | 0.10 | 0.00 | 73 | 1026.2 |
| 20260905191235 | 63 | 292 | 1.0 | 2.0 | 0.00 | 0.10 | 0.00 | 72 | 1026.2 |
| 20260905185735 | 64 | 315 | 0.0 | 0.0 | 0.00 | 0.10 | 0.00 | 70 | 1026.0 |
| 20260905184235 | 65 | 315 | 1.0 | 1.0 | 0.00 | 0.10 | 0.00 | 69 | 1025.9 |
| 20260905182735 | 67 | 270 | 0.0 | 2.0 | 0.00 | 0.10 | 0.00 | 65 | 1025.6 |
| 20260905181235 | 68 | 270 | 3.0 | 3.0 | 0.00 | 0.10 | 0.00 | 64 | 1025.4 |
| 20260905175735 | 68 | 292 | 3.0 | 3.0 | 0.00 | 0.10 | 0.00 | 62 | 1025.3 |
| 20260905174235 | 70 | 270 | 3.0 | 4.0 | 0.00 | 0.10 | 0.00 | 60 | 1025.1 |
| 20260905172735 | 71 | 270 | 3.0 | 3.0 | 0.00 | 0.10 | 0.00 | 59 | 1024.8 |
| 20260905171235 | 73 | 270 | 3.0 | 3.0 | 0.00 | 0.10 | 0.00 | 56 | 1024.8 |
| 20260905165735 | 74 | 225 | 0.0 | 11.0 | 0.00 | 0.10 | 0.00 | 55 | 1024.8 |
| 20260905164235 | 74 | 202 | 5.0 | 6.0 | 0.00 | 0.10 | 0.00 | 55 | 1024.5 |
| 20260905162735 | 76 | 315 | 5.0 | 5.0 | 0.00 | 0.10 | 0.00 | 52 | 1024.7 |
| 20260905161235 | 76 | 270 | 2.0 | 2.0 | 0.00 | 0.10 | 0.00 | 51 | 1024.4 |
| 20260905155735 | 76 | 225 | 2.0 | 2.0 | 0.00 | 0.10 | 0.00 | 51 | 1024.3 |
| 20260905154235 | 77 | 292 | 4.0 | 4.0 | 0.00 | 0.10 | 0.00 | 51 | 1024.3 |
| 20260905152735 | 78 | 270 | 3.0 | 6.0 | 0.00 | 0.10 | 0.00 | 50 | 1024.4 |
| 20260905151235 | 78 | 270 | 7.0 | 7.0 | 0.00 | 0.10 | 0.00 | 49 | 1024.4 |
| 20260905145735 | 79 | 247 | 2.0 | 3.0 | 0.00 | 0.10 | 0.00 | 49 | 1024.1 |
| 20260905144235 | 79 | 292 | 11.0 | 11.0 | 0.00 | 0.10 | 0.00 | 49 | 1024.2 |
| 20260905142735 | 79 | 315 | 15.0 | 15.0 | 0.00 | 0.10 | 0.00 | 49 | 1024.2 |
| 20260905141235 | 79 | 247 | 3.0 | 4.0 | 0.00 | 0.10 | 0.00 | 50 | 1024.4 |
| 20260905135735 | 78 | 225 | 8.0 | 8.0 | 0.00 | 0.10 | 0.00 | 51 | 1024.5 |
| 20260905134235 | 77 | 247 | 3.0 | 3.0 | 0.00 | 0.10 | 0.00 | 52 | 1024.6 |
| 20260905132735 | 77 | 292 | 8.0 | 8.0 | 0.00 | 0.10 | 0.00 | 52 | 1024.5 |
| 20260905131235 | 76 | 270 | 7.0 | 8.0 | 0.00 | 0.10 | 0.00 | 53 | 1024.7 |
| 20260905125735 | 77 | 270 | 1.0 | 10.0 | 0.00 | 0.10 | 0.00 | 52 | 1024.8 |
| 20260905124235 | 77 | 292 | 0.0 | 11.0 | 0.00 | 0.10 | 0.00 | 52 | 1025.3 |
| 20260905122735 | 78 | 225 | 3.0 | 10.0 | 0.00 | 0.10 | 0.00 | 53 | 1025.4 |
| 20260905121235 | 78 | 225 | 0.0 | 0.0 | 0.00 | 0.10 | 0.00 | 52 | 1025.2 |
| 20260905115735 | 78 | 270 | 1.0 | 6.0 | 0.00 | 0.10 | 0.00 | 52 | 1025.4 |
| 20260905114235 | 76 | 225 | 3.0 | 6.0 | 0.00 | 0.10 | 0.00 | 53 | 1025.3 |
| 20260905112735 | 76 | 225 | 2.0 | 9.0 | 0.00 | 0.10 | 0.00 | 53 | 1025.4 |
| 20260905111235 | 77 | 225 | 9.0 | 9.0 | 0.00 | 0.10 | 0.00 | 52 | 1025.4 |
| 20260905105735 | 80 | 270 | 0.0 | 4.0 | 0.00 | 0.10 | 0.00 | 51 | 1025.3 |
| 20260905104235 | 81 | 292 | 6.0 | 6.0 | 0.00 | 0.10 | 0.00 | 51 | 1025.4 |
| 20260905102735 | 80 | 247 | 6.0 | 6.0 | 0.00 | 0.10 | 0.00 | 52 | 1025.5 |
| 20260905101235 | 81 | 225 | 2.0 | 4.0 | 0.00 | 0.10 | 0.00 | 52 | 1025.5 |
| 20260905095735 | 83 | 292 | 0.0 | 0.0 | 0.00 | 0.10 | 0.00 | 54 | 1025.9 |
| 20260905094235 | 77 | 292 | 3.0 | 3.0 | 0.00 | 0.10 | 0.00 | 62 | 1025.9 |
| 20260905092735 | 73 | 270 | 0.0 | 0.0 | 0.00 | 0.10 | 0.00 | 72 | 1026.1 |
| 20260905091235 | 69 | 270 | 1.0 | 1.0 | 0.00 | 0.10 | 0.00 | 77 | 1026.0 |
| 20260905085735 | 66 | 247 | 1.0 | 4.0 | 0.00 | 0.10 | 0.00 | 79 | 1025.8 |
| 20260905084235 | 65 | 270 | 1.0 | 1.0 | 0.00 | 0.10 | 0.00 | 81 | 1026.0 |
| 20260905082735 | 64 | 270 | 0.0 | 3.0 | 0.00 | 0.10 | 0.00 | 81 | 1026.1 |
| 20260905081235 | 64 | 247 | 1.0 | 2.0 | 0.00 | 0.10 | 0.00 | 83 | 1026.0 |
| 20260905075735 | 63 | 247 | 2.0 | 2.0 | 0.02 | 0.10 | 0.00 | 84 | 1026.0 |
| 20260905074235 | 62 | 270 | 2.0 | 2.0 | 0.06 | 0.10 | 0.00 | 84 | 1025.5 |
| 20260905072735 | 61 | 270 | 0.0 | 0.0 | 0.06 | 0.10 | 0.00 | 84 | 1025.3 |
| 20260905071235 | 60 | 270 | 0.0 | 0.0 | 0.08 | 0.10 | 0.00 | 84 | 1025.1 |
| 20260905065735 | 60 | 270 | 0.0 | 2.0 | 0.06 | 0.08 | 0.00 | 84 | 1025.1 |
| 20260905064236 | 60 | 247 | 0.0 | 3.0 | 0.02 | 0.04 | 0.00 | 84 | 1025.1 |
| 20260905062736 | 61 | 247 | 1.0 | 1.0 | 0.02 | 0.04 | 0.00 | 83 | 1024.6 |
| 20260905061236 | 62 | 270 | 2.0 | 2.0 | 0.00 | 0.02 | 0.00 | 83 | 1024.6 |
| 20260905055736 | 62 | 225 | 3.0 | 3.0 | 0.00 | 0.02 | 0.00 | 83 | 1023.9 |
| 20260905054236 | 62 | 90 | 0.0 | 2.0 | 0.00 | 0.02 | 0.00 | 83 | 1023.2 |
| 20260905052736 | 62 | 112 | 1.0 | 1.0 | 0.02 | 0.02 | 0.00 | 83 | 1023.0 |
| 20260905051236 | 61 | 247 | 2.0 | 2.0 | 0.02 | 0.02 | 0.00 | 83 | 1023.7 |
| 20260905045736 | 61 | 90 | 0.0 | 0.0 | 0.02 | 0.02 | 0.00 | 81 | 1021.8 |
| 20260905044236 | 61 | 67 | 1.0 | 5.0 | 0.02 | 0.02 | 0.00 | 81 | 1021.5 |
| 20260905042736 | 63 | 67 | 3.0 | 8.0 | 0.00 | 0.00 | 0.00 | 79 | 1021.3 |
| 20260905041236 | 67 | 45 | 5.0 | 7.0 | 0.00 | 0.00 | 0.00 | 73 | 1020.5 |
| 20260905035736 | 69 | 90 | 0.0 | 2.0 | 0.00 | 0.00 | 0.00 | 68 | 1020.2 |
| 20260905034236 | 68 | 67 | 1.0 | 1.0 | 0.00 | 0.00 | 0.00 | 70 | 1019.9 |
| 20260905032736 | 66 | 67 | 0.0 | 2.0 | 0.00 | 0.00 | 0.00 | 73 | 1019.9 |
| 20260905031236 | 65 | 337 | 0.0 | 0.0 | 0.00 | 0.00 | 0.00 | 75 | 1019.3 |
| 20260905025736 | 64 | 315 | 2.0 | 2.0 | 0.00 | 0.00 | 0.00 | 76 | 1019.3 |
| 20260905024236 | 64 | 292 | 0.0 | 0.0 | 0.00 | 0.00 | 0.00 | 76 | 1019.3 |
| 20260905022736 | 64 | 292 | 0.0 | 0.0 | 0.00 | 0.00 | 0.00 | 75 | 1019.2 |
| 20260905021236 | 65 | 292 | 0.0 | 0.0 | 0.00 | 0.00 | 0.00 | 74 | 1019.0 |
| 20260905015736 | 66 | 292 | 0.0 | 0.0 | 0.00 | 0.00 | 0.00 | 73 | 1018.8 |
| 20260905014236 | 66 | 292 | 0.0 | 0.0 | 0.00 | 0.00 | 0.00 | 72 | 1018.6 |
| 20260905012736 | 67 | 292 | 0.0 | 0.0 | 0.00 | 0.00 | 0.00 | 72 | 1018.7 |
| 20260905011236 | 67 | 292 | 0.0 | 0.0 | 0.00 | 0.00 | 0.00 | 72 | 1018.7 |
| 20260905005736 | 66 | 292 | 0.0 | 0.0 | 0.00 | 0.00 | 0.00 | 72 | 1018.7 |
| 20260905004236 | 67 | 292 | 0.0 | 0.0 | 0.00 | 0.00 | 0.00 | 72 | 1018.5 |
| 20260905002736 | 67 | 270 | 0.0 | 0.0 | 0.00 | 0.00 | 0.00 | 73 | 1018.4 |